SL-19 DEB, 23486

Orbit data source: Space-Track

SL-19 DEB, 23486 is space debris in LEO originally from a launch on Mon, 26 Dec 1994 UTC launched from the Tyuratam Missile And Space Complex (TTMTR). Debris objects in space refer to the collection of defunct objects orbiting the Earth. Examples of debris include non-operational satellites, rocket bodies, and fragments generated from explosions, collisions, or faulty payload assembly.

Loading next visibility...
Identifier
23486, 1994-085J
Orbit
LEO
Country
Flag of CISCIS
Related business
Manufacturer
Unknown
Mission
Spacecraft
Bus & Motor
Unknown
Mass
Unknown
Launch date (UTC)
1994-12-26 (31 years ago)
Launch vehicle
Unknown
Launch site
Tyuratam Missile And Space Complex (TTMTR)
Object type
Payload
Rocket body
Debris
Shape & HBR
Unknown shape, 0.1 m
Radar Cross Section
Small (<0.1 m²)

Expand to show TLE details & history
Last TLE update: 2 days ago

TLE from 2 days ago
0 SL-19 DEB
1 23486U 94085J   26061.37048605  .00000521  00000-0  16184-1 0  9996
2 23486  64.9165 295.0224 0177767 262.2946 273.7885 11.25720296591118
Epoch: 2026-03-02T08:53Z
TLE epoch observation values (Epoch: 2026-03-02T08:53:29.994Z)
Latitude
5.33306°
Longitude
178.98978°
Altitude
2,025.499 km
Speed
6.892 km/s
True Right ascension
07h 30m 07s
True Declination
5° 18' 22"
Sunlit
Object was in daylight at epoch
Visualization orbit readout
Latitude
Unknown
Longitude
Unknown
Altitude
Unknown
Speed
Unknown
Apparent Right ascension
Unknown
Apparent Declination
Unknown
Sunlit
N/A
Visualization observer readout
Local Sidereal Time
03:34:57
Azimuth
Unknown
Elevation
Unknown
Doppler factor
Unknown
Orbital elements
Apogee altitude
2,179.856 km
Perigee altitude
1,880.905 km
Semi-major axis
8,408.518 km
Eccentricity
0.01778
Inclination
64.9165°
RAAN
295.0224°
Arg. of periapsis
262.2946°
True anomaly
271.75333°
Mean anomaly
273.7885°
Eccentric anomaly
272.77116°
Mean motion
2.81491 °/min
Orbital period
127.89 mins
BSTAR
0.016184
Loading maneuver chart data...
Computing Atmospheric mass density...
Loading historical data...
Loading historical data...
Loading historical data...
Loading historical data...
Loading historical data...
Loading historical data...
Loading historical data...

Documentation

Showing up to 5 results
|